Temperature
14 14 15 15 15 15 15 15 15 14 14 14 14 14 14 14 14 14 14 14 14 14 13 13 13 13 13 13 12 12 12 12 12 12 11 11 11 11 11 11 11 10 10
14 14 14 14 14 14 14 14 14 14 14 14 14 14 14 14 14 14 14 14 14 13 13 13 13 13 13 12 12 12 12 12 12 11 11 11 11 11 11 11 10 10 10
14 14 14 14 14 14 14 14 14 14 14 14 14 14 14 13 13 13 13 13 13 13 13 13 12 12 12 12 12 12 12 12 11 11 11 11 11 10 10 10 10 10 10
14 14 14 14 14 14 14 14 14 14 14 14 13 13 13 13 13 13 13 13 13 13 13 12 12 12 12 12 12 12 11 11 11 11 11 10 10 10 10 10 10 10 10
14 14 14 14 14 14 14 14 14 13 13 13 13 13 13 13 13 13 13 13 13 13 12 12 12 12 12 12 12 11 11 11 11 11 10 10 10 10 10 9 9 9 9
13 13 13 13 13 13 13 13 13 13 13 13 13 12 13 13 12 12 13 12 12 12 12 12 12 12 12 11 11 11 11 11 11 10 10 10 10 9 9 9 9 9 9
13 13 13 13 13 13 13 13 13 12 12 12 12 12 12 12 12 12 12 12 12 12 12 11 11 11 11 11 11 11 11 10 10 10 10 10 9 9 9 9 9 9 9
13 12 13 13 13 13 13 12 12 12 12 11 11 11 10 11 11 11 11 12 12 12 11 11 11 11 11 11 11 11 10 10 10 10 9 9 9 9 9 8 8 8 8
12 12 12 12 12 12 12 12 12 12 11 11 11 10 10 10 11 11 11 11 11 11 11 11 11 11 11 10 10 10 10 10 10 9 9 9 9 8 8 8 8 8 8
12 12 12 12 12 12 12 11 11 11 11 11 11 10 10 10 10 10 10 11 11 11 11 10 10 10 10 10 10 10 10 10 9 9 9 8 8 8 8 8 8 8 8
11 11 11 11 11 11 11 11 11 11 11 11 10 10 10 10 10 10 10 10 10 10 10 10 10 10 10 10 10 9 9 9 9 9 8 8 8 8 8 7 7 7 7
11 11 11 11 11 11 11 11 11 11 11 10 10 10 10 9 9 9 9 10 10 10 10 10 10 10 9 9 9 9 9 9 9 8 8 8 7 7 7 7 7 7 7
10 10 10 10 10 10 10 10 10 10 10 10 10 9 9 9 9 9 9 9 9 9 9 9 9 9 9 9 9 8 8 8 8 7 7 7 7 7 7 6 6 6 6
10 10 10 10 10 10 10 10 10 10 10 9 9 9 9 9 9 9 9 9 8 8 8 9 9 9 9 8 8 8 8 8 7 7 7 7 7 6 6 6 6 6 6
9 9 9 9 9 9 9 9 9 9 9 9 9 9 8 8 8 8 8 8 8 8 8 8 8 8 8 8 8 7 7 7 7 7 6 6 6 6 6 6 6 5 6
8 8 8 8 8 9 9 8 8 8 8 8 8 8 8 8 8 8 7 8 8 8 7 8 8 8 8 7 7 7 7 6 6 6 6 5 5 5 5 5 5 5 5
8 8 8 8 8 8 8 8 8 8 8 7 7 7 7 7 7 7 7 7 7 7 7 7 7 7 7 7 6 6 6 6 5 5 5 5 4 4 4 4 5 5 5
7 7 7 7 7 7 7 7 7 7 7 7 7 6 6 6 6 7 7 7 7 7 7 7 7 7 6 6 6 5 5 5 5 4 4 4 4 4 4 4 4 4 4
7 7 7 7 7 7 7 7 7 7 6 6 6 6 6 6 6 6 6 6 6 6 6 6 6 6 6 5 5 5 5 4 4 4 4 3 3 3 3 3 3 4 4
6 6 6 6 6 6 6 6 6 6 6 5 6 6 5 5 5 5 5 5 6 6 6 6 5 5 5 5 4 4 4 4 3 3 3 3 3 3 3 3 3 3 3
6 6 6 6 6 5 5 5 5 5 5 5 5 5 5 5 5 5 5 5 5 5 5 5 5 5 5 4 4 4 3 3 3 3 2 2 2 2 2 2 3 3 3
5 5 5 5 5 5 5 4 4 4 4 4 4 5 5 5 4 4 4 4 4 4 4 4 4 4 4 4 4 3 3 2 2 2 2 2 2 2 2 2 2 2 3
4 4 4 4 4 4 4 4 4 4 4 4 4 4 4 4 4 4 4 4 4 4 4 4 4 4 4 4 3 3 3 2 2 2 2 1 1 1 2 2 2 2 2
4 4 4 4 4 4 4 3 3 3 3 3 3 3 3 3 3 3 3 3 3 3 3 3 3 3 3 3 3 3 3 2 1 1 1 1 1 1 1 1 1 1 2
3 3 3 3 3 3 3 3 3 3 3 3 3 3 3 3 3 3 3 3 3 3 3 3 3 3 3 3 3 2 2 1 1 1 1 0 0 0 0 1 1 1 1
3 3 3 3 3 2 2 2 2 3 3 3 3 3 3 3 2 2 2 2 2 2 2 2 2 2 2 2 2 2 2 1 1 0 0 0 0 -0 -0 0 0 0 1
Wind_Speed
6 6 6 7 7 7 7 5 4 4 3 4 5 5 5 7 7 8 8 9 10 9 9 9 9 8 8 7 6 6 5 5 4 3 3 4 3 3 3 3 3 3 3
7 6 6 6 7 8 7 6 5 4 3 3 3 4 6 7 7 8 9 9 10 10 10 10 9 9 9 8 8 7 6 6 5 4 3 3 3 3 3 4 4 4 4
10 7 6 6 7 9 8 6 4 3 2 2 4 4 5 6 7 8 9 9 9 10 10 10 10 9 9 9 9 8 7 6 6 5 4 3 3 3 4 4 4 5 5
11 8 7 6 8 8 6 5 4 3 3 3 3 4 4 5 6 7 8 8 8 9 10 10 10 9 8 9 10 9 8 7 7 6 5 5 5 5 4 4 5 5 5
11 9 7 6 8 6 5 6 4 3 3 4 4 3 3 4 4 5 6 7 8 9 9 9 10 10 9 10 9 9 8 8 7 7 6 6 5 5 5 5 5 5 5
9 8 6 6 7 6 5 5 5 4 3 3 2 3 3 4 3 4 5 6 7 8 9 9 8 8 9 10 10 10 9 9 9 8 7 6 5 5 5 5 5 5 6
7 7 6 7 7 6 7 6 4 4 3 2 1 2 2 3 4 4 4 4 5 7 8 9 8 8 7 9 10 10 10 9 9 9 8 7 6 6 5 5 6 6 6
5 5 6 6 7 6 6 6 5 4 3 3 2 1 2 3 3 5 5 5 5 5 6 8 8 8 8 7 8 10 10 10 10 9 9 8 7 6 6 5 6 6 6
3 3 5 6 6 6 6 7 7 6 5 5 4 3 2 4 3 3 4 5 5 5 5 6 9 9 9 8 7 9 9 9 10 10 10 9 7 6 6 5 5 5 5
2 2 4 5 6 5 6 7 7 6 6 5 4 4 3 2 3 3 3 3 4 5 6 5 6 8 9 8 8 8 8 8 9 10 10 9 7 6 5 4 4 4 4
2 2 3 4 5 5 6 6 6 6 6 6 5 3 3 3 3 3 5 4 3 4 5 5 5 5 7 8 8 8 8 8 9 9 9 8 7 6 4 3 3 3 4
2 3 3 4 5 5 6 6 7 7 7 7 6 5 4 4 4 4 5 5 5 4 4 4 4 5 6 8 8 8 8 8 8 8 8 7 5 4 3 2 1 1 3
1 2 3 4 4 5 5 5 6 7 7 7 8 8 7 6 4 4 5 5 5 4 3 4 4 5 6 7 7 8 8 8 8 7 6 4 2 1 1 0 1 2 3
1 2 3 3 5 5 6 6 6 7 6 8 8 8 6 6 5 5 5 4 5 4 5 5 3 5 5 6 8 9 7 7 7 6 5 3 3 2 2 1 1 2 4
1 2 2 3 3 3 4 5 6 7 6 7 7 7 6 6 6 6 5 5 6 7 8 6 4 4 5 6 7 8 7 7 7 6 5 4 4 4 3 2 1 2 3
2 2 3 3 3 3 3 4 4 6 6 6 5 6 6 5 5 5 6 6 6 6 7 4 4 3 4 4 7 7 7 7 7 7 6 5 5 4 3 2 2 3 4
2 3 3 3 3 4 4 4 4 4 6 6 5 6 7 6 5 5 5 6 5 5 6 4 2 2 3 4 4 5 6 5 5 6 6 6 5 5 3 2 2 3 4
3 3 3 3 3 4 4 4 5 5 5 6 6 6 7 5 6 5 5 6 6 5 5 5 2 2 2 4 4 4 4 5 4 6 6 6 5 5 3 2 2 3 4
3 3 2 2 3 4 4 4 5 5 5 6 6 6 6 5 6 4 5 5 4 3 2 3 2 1 1 3 4 3 4 3 3 4 5 5 5 4 3 2 2 3 3
3 2 2 2 2 3 4 4 4 4 4 5 5 6 6 6 6 5 5 4 3 3 2 3 2 2 2 3 4 4 3 2 2 2 3 3 4 4 3 2 2 3 3
4 3 3 3 2 2 3 3 3 3 4 4 5 5 5 5 6 5 4 4 3 3 3 3 3 3 3 4 4 3 3 3 1 1 2 1 2 2 2 2 3 3 4
4 4 4 3 3 3 5 5 4 3 3 4 5 5 4 4 4 5 5 4 4 4 4 4 4 5 5 4 4 5 4 3 2 1 2 1 2 2 1 0 1 3 4
5 5 4 4 4 5 6 6 6 4 4 4 5 5 4 4 3 3 3 2 3 4 5 5 5 6 6 7 8 6 5 3 2 2 2 1 1 1 0 0 1 2 4
5 4 5 5 5 6 8 8 7 3 4 4 5 5 4 4 3 3 2 2 2 1 2 3 4 4 5 7 7 7 6 5 4 2 2 2 1 1 1 1 2 2 4
5 5 4 5 5 7 9 8 7 3 3 5 4 4 4 4 4 2 2 2 1 1 2 4 5 5 8 10 10 8 7 5 2 1 1 2 2 1 1 1 2 3 4
4 5 5 5 5 5 9 9 8 3 3 4 3 3 3 3 3 2 3 3 3 1 2 4 5 6 6 8 8 6 7 6 3 2 2 2 2 2 1 1 2 3 3
Wind_Direction
173 169 172 173 175 176 177 175 174 179 186 190 197 199 207 216 220 224 228 229 229 230 231 230 231 232 234 232 230 228 231 238 246 247 242 246 251 268 287 293 290 297 303
178 176 176 179 184 185 185 184 183 185 195 199 216 215 218 223 226 228 231 231 231 232 236 237 239 239 241 240 237 235 235 236 240 245 243 252 255 267 276 284 289 293 298
181 180 184 187 191 188 184 182 179 182 195 215 229 229 225 226 228 229 230 230 230 231 235 240 243 244 246 245 244 240 235 236 237 240 238 248 259 268 273 283 288 287 290
181 180 187 191 187 183 181 182 184 191 207 217 234 238 229 225 229 230 229 229 228 229 231 236 240 245 248 249 250 242 237 230 228 229 235 246 249 261 274 286 295 293 290
184 181 185 187 182 181 185 192 193 192 207 220 230 239 237 237 235 228 225 227 227 227 226 231 233 238 242 244 247 243 235 229 225 224 232 242 243 252 269 281 290 290 293
185 181 180 184 182 186 191 194 197 201 206 209 234 259 260 250 242 234 231 226 226 227 225 224 224 231 237 239 242 245 240 234 227 223 228 235 240 251 266 274 285 286 287
183 183 187 186 187 193 196 195 195 201 205 167 162 284 282 247 239 239 232 228 226 224 224 221 219 222 232 238 238 240 242 237 233 230 230 232 241 253 266 274 284 289 286
184 189 191 191 190 193 196 198 190 193 200 180 176 226 276 281 247 234 230 227 229 216 219 222 219 220 222 224 230 231 236 238 239 236 231 231 238 251 256 268 283 293 286
182 190 200 194 193 193 201 205 199 196 205 205 196 189 212 242 279 244 229 230 228 228 229 220 219 219 219 216 218 222 225 229 236 237 235 233 235 245 250 260 280 295 299
186 207 210 198 197 198 203 208 206 210 203 210 219 224 230 219 242 269 261 236 224 231 231 231 220 217 215 211 215 217 219 221 232 239 238 235 235 234 243 254 272 297 317
224 229 229 210 207 208 211 210 210 211 211 214 216 222 239 249 242 244 267 266 252 239 234 229 216 211 214 210 207 209 214 220 228 236 238 238 239 234 241 248 267 299 322
218 219 224 218 213 213 215 218 217 216 218 221 226 224 223 224 233 236 256 265 263 259 247 238 220 211 211 209 209 209 209 216 226 232 235 236 231 231 228 214 250 321 333
262 257 238 224 220 220 220 218 222 224 224 226 230 234 233 235 235 238 246 261 267 269 253 247 226 209 209 207 207 208 206 209 217 222 229 223 197 208 191 124 9 337 335
266 258 248 235 227 223 223 221 229 231 228 230 236 239 243 242 234 234 235 241 260 261 248 247 234 218 211 207 207 201 199 198 202 204 201 188 158 158 155 98 25 342 342
285 269 264 266 254 235 233 231 234 236 235 236 240 241 247 251 245 242 236 225 229 250 250 234 226 218 209 202 205 195 189 188 190 184 171 164 158 149 128 93 31 346 345
314 292 276 268 267 251 237 235 242 241 237 240 242 247 251 257 251 247 239 232 232 239 252 237 230 217 197 194 199 185 178 174 176 171 164 158 148 136 119 77 14 357 351
299 283 268 263 265 257 242 235 241 248 244 244 245 243 249 250 249 251 246 240 236 235 251 261 242 212 187 180 172 160 158 156 163 165 157 151 148 140 123 80 13 6 352
284 270 267 266 277 275 259 244 245 248 249 247 245 248 256 254 249 246 242 247 244 236 238 246 242 193 182 177 159 151 144 141 153 159 151 151 148 139 124 85 30 16 359
290 276 270 270 272 273 268 260 258 255 254 251 247 247 253 253 257 257 251 246 248 249 241 226 226 175 159 154 142 129 118 116 128 145 144 150 148 137 120 91 55 23 14
328 313 301 289 283 283 274 270 266 265 267 268 260 251 250 247 247 247 247 243 238 233 211 194 188 165 146 143 149 149 136 121 115 124 134 133 138 129 113 82 56 33 30
354 353 344 329 318 304 291 288 277 272 273 280 275 261 257 258 258 255 252 242 229 228 208 188 179 166 161 162 171 157 155 127 99 117 110 105 114 110 95 70 54 42 43
358 2 357 344 334 322 325 323 318 291 282 280 281 279 272 253 255 268 268 255 238 232 221 200 191 184 180 169 154 152 144 140 177 163 130 113 109 113 116 84 61 63 63
358 357 352 348 339 329 335 331 330 316 293 278 274 273 276 272 268 247 257 259 255 252 228 207 195 188 177 174 162 156 155 151 158 147 123 135 99 105 106 318 48 72 83
351 345 343 342 340 337 344 342 334 315 294 282 273 264 258 262 257 249 232 234 261 273 220 197 189 183 171 164 162 153 142 118 89 77 113 135 120 94 34 354 42 75 99
348 342 336 340 338 331 338 340 341 305 292 289 280 268 256 254 260 252 204 208 229 332 59 110 120 130 141 146 144 132 136 138 134 148 125 133 133 89 54 27 15 58 91
340 339 343 340 331 324 335 342 344 319 309 306 302 292 277 267 266 237 202 193 198 207 130 107 101 107 117 134 144 150 153 152 139 162 168 138 135 114 87 8 16 36 71
Height
1519 1522 1524 1527 1529 1532 1534 1535 1537 1539 1540 1542 1542 1543 1544 1545 1545 1546 1546 1546 1546 1546 1546 1546 1545 1545 1545 1545 1544 1544 1543 1542 1542 1541 1540 1540 1539 1538 1537 1536 1535 1535 1534
1517 1519 1522 1524 1527 1529 1531 1533 1535 1536 1538 1539 1540 1541 1542 1542 1543 1543 1543 1543 1543 1543 1543 1543 1543 1542 1542 1542 1542 1541 1541 1540 1539 1539 1538 1537 1537 1536 1535 1534 1533 1533 1532
1514 1517 1519 1521 1524 1526 1528 1530 1532 1534 1535 1536 1537 1538 1538 1539 1539 1540 1540 1540 1540 1540 1540 1540 1540 1539 1539 1539 1539 1538 1538 1537 1537 1536 1535 1535 1534 1534 1533 1532 1531 1530 1530
1510 1513 1516 1518 1521 1523 1525 1526 1528 1529 1531 1532 1533 1534 1534 1535 1535 1536 1536 1536 1536 1536 1536 1536 1536 1536 1535 1535 1535 1534 1534 1534 1533 1533 1532 1532 1531 1531 1530 1529 1528 1528 1527
1506 1509 1512 1514 1517 1519 1521 1523 1524 1525 1526 1528 1529 1530 1530 1531 1531 1531 1531 1532 1532 1532 1532 1532 1532 1531 1531 1531 1531 1531 1530 1530 1529 1529 1529 1528 1528 1528 1527 1526 1525 1524 1524
1502 1505 1508 1510 1513 1515 1516 1518 1520 1521 1522 1524 1524 1525 1525 1526 1526 1526 1526 1527 1527 1527 1527 1526 1527 1526 1526 1526 1526 1526 1526 1525 1525 1525 1525 1524 1524 1524 1523 1523 1522 1521 1520
1498 1501 1503 1506 1508 1510 1512 1514 1515 1517 1518 1519 1520 1519 1519 1520 1520 1521 1521 1521 1521 1522 1522 1521 1521 1521 1521 1521 1521 1521 1521 1521 1521 1521 1521 1520 1520 1520 1519 1519 1518 1517 1517
1494 1496 1498 1501 1503 1505 1507 1509 1510 1511 1513 1514 1515 1515 1514 1514 1514 1514 1515 1515 1515 1516 1516 1516 1516 1516 1516 1515 1515 1515 1516 1516 1516 1516 1516 1516 1516 1516 1515 1515 1514 1514 1513
1489 1491 1494 1496 1498 1500 1502 1503 1505 1506 1507 1509 1510 1511 1511 1508 1508 1507 1508 1509 1509 1510 1510 1510 1510 1509 1509 1509 1509 1509 1509 1510 1510 1511 1511 1511 1511 1511 1511 1511 1510 1510 1509
1485 1487 1489 1491 1493 1495 1496 1498 1500 1501 1502 1503 1505 1506 1507 1505 1505 1501 1501 1502 1503 1503 1503 1503 1503 1503 1503 1503 1503 1503 1504 1504 1505 1505 1506 1506 1506 1506 1507 1506 1506 1506 1505
1480 1482 1484 1486 1487 1489 1491 1493 1494 1495 1496 1497 1498 1499 1500 1500 1500 1499 1496 1495 1496 1496 1497 1497 1496 1497 1497 1496 1497 1497 1498 1499 1499 1500 1500 1501 1501 1501 1502 1502 1502 1502 1501
1475 1477 1479 1480 1482 1483 1485 1487 1489 1490 1491 1492 1493 1493 1493 1493 1493 1493 1492 1490 1489 1489 1490 1490 1490 1491 1491 1491 1491 1492 1492 1493 1493 1494 1495 1495 1496 1496 1496 1497 1497 1497 1497
1470 1472 1474 1475 1477 1478 1480 1481 1482 1483 1484 1485 1486 1487 1487 1487 1488 1488 1487 1485 1484 1483 1483 1483 1483 1484 1485 1485 1486 1486 1487 1487 1488 1489 1489 1490 1490 1491 1491 1492 1492 1493 1493
1466 1468 1469 1470 1471 1472 1474 1475 1476 1477 1477 1479 1480 1480 1480 1480 1481 1481 1481 1480 1478 1476 1476 1476 1477 1478 1479 1479 1479 1480 1481 1481 1482 1483 1484 1484 1485 1486 1487 1487 1488 1488 1489
1462 1464 1465 1465 1466 1466 1467 1468 1469 1470 1471 1472 1472 1473 1473 1473 1474 1473 1473 1473 1474 1470 1469 1469 1470 1471 1472 1473 1473 1474 1475 1476 1477 1477 1478 1479 1480 1481 1482 1483 1484 1484 1484
1458 1459 1460 1461 1461 1461 1461 1462 1463 1463 1464 1465 1465 1465 1466 1466 1466 1465 1465 1465 1466 1465 1463 1463 1464 1464 1466 1466 1467 1468 1469 1471 1472 1472 1473 1475 1476 1477 1478 1478 1480 1480 1480
1455 1455 1455 1456 1456 1456 1456 1456 1457 1457 1457 1457 1458 1459 1459 1459 1459 1458 1458 1458 1458 1458 1457 1456 1458 1458 1459 1460 1462 1462 1464 1465 1467 1468 1469 1471 1472 1473 1474 1475 1476 1476 1476
1450 1450 1451 1451 1451 1451 1451 1451 1452 1452 1452 1452 1452 1452 1452 1452 1452 1451 1451 1451 1451 1451 1451 1450 1451 1452 1453 1455 1457 1458 1459 1460 1462 1464 1465 1467 1468 1470 1471 1471 1472 1473 1473
1446 1446 1446 1446 1446 1447 1447 1447 1447 1447 1447 1447 1447 1446 1446 1446 1445 1445 1444 1444 1444 1445 1445 1445 1445 1446 1448 1450 1452 1453 1454 1457 1458 1461 1462 1464 1465 1467 1467 1468 1469 1469 1469
1442 1441 1441 1442 1442 1443 1442 1442 1442 1442 1442 1442 1442 1441 1441 1441 1440 1439 1439 1438 1438 1439 1439 1439 1440 1441 1443 1444 1447 1449 1451 1453 1455 1458 1459 1461 1462 1463 1464 1465 1466 1466 1467
1439 1438 1438 1438 1439 1439 1439 1438 1438 1438 1438 1437 1437 1436 1436 1436 1435 1435 1434 1433 1433 1434 1434 1434 1435 1436 1437 1440 1442 1445 1447 1450 1452 1455 1456 1458 1459 1460 1461 1462 1462 1463 1464
1437 1437 1436 1436 1435 1435 1435 1435 1434 1433 1433 1433 1432 1432 1431 1431 1430 1430 1429 1429 1429 1429 1428 1429 1430 1431 1433 1435 1438 1441 1444 1446 1449 1452 1453 1454 1456 1457 1459 1460 1460 1461 1462
1436 1435 1434 1434 1433 1432 1431 1431 1430 1429 1428 1428 1428 1427 1426 1426 1426 1425 1425 1424 1424 1424 1425 1426 1426 1427 1429 1432 1434 1437 1440 1443 1445 1448 1450 1451 1453 1454 1457 1458 1458 1459 1460
1435 1433 1432 1431 1430 1429 1428 1428 1427 1426 1425 1424 1423 1423 1422 1421 1420 1420 1420 1420 1420 1420 1420 1422 1423 1424 1427 1429 1431 1434 1437 1440 1443 1445 1447 1449 1450 1452 1454 1455 1456 1457 1458
1434 1432 1430 1429 1428 1427 1426 1425 1423 1422 1421 1420 1420 1419 1418 1417 1417 1417 1417 1416 1416 1417 1418 1419 1420 1422 1424 1426 1429 1431 1433 1436 1439 1442 1444 1446 1448 1450 1451 1453 1454 1456 1457
1433 1431 1429 1427 1426 1424 1423 1422 1421 1419 1418 1417 1416 1415 1415 1414 1413 1413 1413 1413 1413 1414 1415 1416 1418 1420 1421 1423 1426 1428 1430 1433 1435 1438 1441 1443 1445 1447 1449 1451 1452 1454 1456